Regional Weather Roundup
Issued by NWS

Home | Current Version | Previous Version | Text Only | Print | Product List | Glossary On
Versions: 1 2 3 4 5 6 7 8 9 10 11 12 13 14 15 16 17 18 19 20 21 22 23 24 25 26 27 28 29 30 31 32 33 34 35 36 37 38 39 40 41 42 43 44 45 46 47 48 49 50
000
ASUS44 KLUB 262001
RWRTX
WEST TEXAS WEATHER ROUNDUP
NATIONAL WEATHER SERVICE LUBBOCK TX
200 PM CST SUN FEB 26 2017

NOTE: "FAIR" INDICATES FEW OR NO CLOUDS BELOW 12,000 FEET WITH NO
SIGNIFICANT WEATHER AND/OR OBSTRUCTIONS TO VISIBILITY.

TXZ004-006>008-010-012-014-016-OKZ002-262100-
TEXAS PANHANDLE/OKLAHOMA PANHANDLE

CITY           SKY/WX    TMP DP  RH WIND       PRES   REMARKS
AMARILLO       SUNNY     55  11  17 VRB7      29.84F
BORGER         CLOUDY    56   6  13 E5        29.85F
CANADIAN       SUNNY     57  17  20 NE8       29.85F
DALHART        SUNNY     55   4  12 S8        29.83F
DUMAS          SUNNY     53   5  14 S7        29.84F
GUYMON         SUNNY     52   5  15 VRB6      29.84F
HEREFORD       PTSUNNY   56  17  21 NW14G21   29.84F
PAMPA          MOSUNNY   56  10  15 S5        29.85F
PERRYTON       SUNNY     55  14  20 NE7       29.84F
$$

TXZ026-029-035-045-048-262100-
SOUTHERN PANHANDLE/SOUTH PLAINS/ROLLING PLAINS

CITY           SKY/WX    TMP DP  RH WIND       PRES   REMARKS
CHILDRESS      SUNNY     59  26  28 VRB3      29.85F
SEMINOLE       SUNNY     64  14  14 CALM      29.86F
LUBBOCK        MOSUNNY   66  11  11 W13       29.85F
PLAINVIEW      MOSUNNY   63  14  14 W21G29    29.83F
SNYDER         MOSUNNY   64  24  21 W5        29.87F
$$

TXZ052-054-060>062-072-078-127-140-154-169-262100-
PERMIAN BASIN/CONCHO VALLEY/BIG COUNTRY/EDWARDS PLATEAU

CITY           SKY/WX    TMP DP  RH WIND       PRES   REMARKS
ABILENE        CLOUDY    70  43  37 SW7       29.85F
BIG SPRING     CLOUDY    68  20  16 W6        29.89F
BROWNWOOD      MOSUNNY   72  55  56 S15G21    29.86F
JUNCTION       CLOUDY    68  57  68 SW14      29.88F
MIDLAND        MOSUNNY   69  13  11 W14G23    29.86F
ODESSA         CLOUDY    68  12  11 W12       29.88F
SAN ANGELO     SUNNY     73  42  32 SW17G25   29.85F
SONORA         SUNNY     70  50  49 S10       29.92F
SWEETWATER     CLOUDY    69  32  26 W9        29.88F
WINK             N/A    N/A N/A N/A MISG      29.84F
$$

TXZ055-058-074-075-080-082-262100-
FAR WEST/SOUTHWEST MOUNTAINS/TRANS PECOS

CITY           SKY/WX    TMP DP  RH WIND       PRES   REMARKS
ALPINE         MOSUNNY   70  17  13 W21       29.97F
DRYDEN           N/A     69  32  25 VRB6      29.86F
EL PASO        PTSUNNY   67  11  11 W20G29    29.88F
FORT STOCKTON  CLOUDY    74  13   9 N8        29.87F
GUADALUPE PASS CLOUDY    56   9  15 W33G43      N/A
MARFA          CLOUDY    68  15  13 SW18G26   29.95F
PECOS          MOSUNNY   74  11   9 W5        29.84F
PRESIDIO       FAIR      72   6   7 S3        29.90F
$$

TXZ014-016-019-021>030-083-262100
TEXAS TECH WEST TEXAS MESONET/TEXAS PANHANDLE/NORTHERN SOUTH PLAINS

CITY           SKY/WX    TMP DP  RH WIND       PRES   REMARKS
ABERNATHY 5ENE   N/A     62  13  15 W13       29.86F
AMARILLO 9NNE    N/A     56  11  16 NW5       29.84F
AMARILLO 7SSE    N/A     57  13  17 W8        29.85F
AMHERST 1NE      N/A     60  11  14 W22       29.85F
CANADIAN 6E      N/A     56  17  21 NE10      29.84F
CAPROCK CYN SP   N/A     61  19  19 N2        29.85F
CHILDRESS 2NNE   N/A     60  27  28 SE5       29.85F
CLARENDON 2WSW   N/A     60  13  16 NW7       29.84F
CLAUDE 12SW      N/A     58  14  17 SW12      29.84F
DIMMITT 2NE      N/A     57  17  20 W20       29.84F
FLOYDADA 2NNE    N/A     64   9  11 W14       29.85F
FRIONA 2NE       N/A     58  16  18 W23       29.84F
GOODLETT 3W      N/A     59  28  31 NE3       29.85F
HART 3N          N/A     58  15  18 W21       29.84F
HEREFORD 2NW     N/A     55  19  23 NW9       29.83F
MCLEAN 1E        N/A     58  15  18 E3        29.83F
MEMPHIS 1NE      N/A     62  21  20 S5        29.84F
MULESHOE 2SSW    N/A     58  14  17 W20       29.86F
OLTON 6S         N/A     63  12  14 SW15      29.85F
PALO DURO SP     N/A     58  14  17 W6        29.85F
PAMPA 2E         N/A     55  11  17 E5        29.85F
PLAINVIEW 1S     N/A     62  16  16 W16       29.84F
SILVERTON 7ESE   N/A     61  12  14 W8        29.84F
TULIA 2ENE       N/A     59  20  21 W18       29.83F
TURKEY 2WSW      N/A     62  20  19 E3        29.84F
UMBARGER 3NNE    N/A     56  15  20 W7        29.85F
$$

TXZ033>036-039>041-045>048-262100
TEXAS TECH WEST TEXAS MESONET/SOUTH PLAINS

CITY           SKY/WX    TMP DP  RH WIND       PRES   REMARKS
AIKEN 3WSW       N/A     61  16  17 W22       29.86F
ANDREWS 2NE      N/A     67  11  11 NW9       29.86F
ANTON 6SSW       N/A     62  13  14 W7G17     29.86F
BROWNFIELD 2S    N/A     63  14  14 W5        29.86F
GAIL 2ESE        N/A     68  15  13 W6        29.85F
LAMESA 2SE       N/A     64  16  15 NW3       29.87F
LEVELLAND 4S     N/A     62  10  12 NW7       29.86F
LUBBOCK 3WNW     N/A     65  11  12 W12       29.86F
MORTON 1ENE      N/A     60   9  13 W12       29.87F
ODONNELL 1N      N/A     64  10  11 W8        29.87F
PLAINS 3N        N/A     63  11  13 W12       29.87F
RALLS 1SE        N/A     63  14  15 W12       29.87F
REESE CENTER     N/A     62   9  12 W12       29.86F
SEAGRAVES 1SW    N/A     63  12  13 N3        29.87F
SEMINOLE 2NNE    N/A     64  11  12 SW5       29.86F
SLATON 2NE       N/A     63  13  14 SW9       29.87F
SNYDER 3E        N/A     66  24  20 W3        29.86F
SUNDOWN 8SW      N/A     63  10  12 W9        29.87F
TAHOKA 3NNE      N/A     65  11  12 W8        29.86F
WOLFFORTH 6SSW   N/A     63   9  12 W9        29.87F
$$

TXZ031-032-036>038-042>044-262100-
TEXAS TECH WEST TEXAS MESONET/ROLLING PLAINS

CITY           SKY/WX    TMP DP  RH WIND       PRES   REMARKS
ASPERMONT 3NE    N/A     70  24  18 NW3       29.85F
FLUVANNA 3WNW    N/A     66  15  14 W2        29.86F
GRAHAM 5SSW      N/A     66  12  12 NW7       29.86F
GUTHRIE 10WSW    N/A     66  17  15 N1        29.84F
HASKELL 1NW      N/A     68  26  20 S3        29.85F
JAYTON 1SSE      N/A     67  25  20 SW3       29.85F
KNOX CITY 3NW    N/A     68  27  21 W5        29.86F
LK A HENRY 1NW   N/A     70  15  12 NW5       29.85F
NORTHFIELD 1S    N/A     64  23  21 W3        29.85F
ODELL 4ENE       N/A     57  33  39 N1        29.88F
PADUCAH 10SW     N/A     65  20  18 NW5       29.85F
POST 1NE         N/A     67   8  10 W7        29.86F
RRING SPRGS 3N   N/A     65  20  17 S6        29.84F
SEYMOUR 3NW      N/A     67  32  26 SW8       29.85F
SPUR 1W          N/A     67  14  13 W1        29.84F
WEINERT 2NNE     N/A     67  29  24 NW7       29.86F
WHITE RVR 6NE    N/A     67   9  10 SW12      29.85F
$$

TXZ052-054-060>062-072-078-127-140-154-169-262100-
TEXAS TECH WEST TEXAS MESONET/PERMIAN BASIN/
CONCHO VALLEY/BIG COUNTRY/EDWARDS PLATEAU

CITY           SKY/WX    TMP DP  RH WIND       PRES   REMARKS
COYANOSA 2N      N/A     74  10   8 W7        29.86F
JUNCTION 1SSW    N/A     68  58  69 S9        29.90F
SAN ANGELO 7NW   N/A     71  40  32 S12       29.86F
STRLNG CT 4WSW   N/A     71  26  19 W9        29.87F
ST LAWRNCE 5SW   N/A     71  13  10 W14       29.87F
SWEETWATR 11SW   N/A     68  33  27 SW10      29.87F
WALL 1E          N/A     74  43  32 SW17      29.87F
$$

TXZ055-058-074-075-080-082-262100-
TEXAS TECH WEST TEXAS MESONET/FAR WEST/SOUTHWEST MOUNTAINS/TRANS PECOS

CITY           SKY/WX    TMP DP  RH WIND       PRES   REMARKS
PRSMN GAP BBNP   N/A     73  22  14 S7        29.89F
GUADLPE MTN NP   N/A     53   6  14 W10       29.94R
$$



USA.gov is the U.S. government's official web portal to all federal, state and local government web resources and services.